[[{"header":{"parameterUnit":"m.s-1","parameterCategory":1,"la1":30.2991,"la2":30.254,"lo1":-89.0895,"lo2":-89.0444,"dy":0.0017,"dx":0.0017,"nx":28,"ny":28,"refTime":"2023-10-20T03:00:00:Z","depth":0,"parameterNumber":2,"parameterNumberName":"U-component_of_WINDS"},"data":[0,0,0,0,0,0,0,0,0,0,0,0,0,0,0,0,0,0,0,0,0,0,0,0,0,0,0,0,0,0,0,0,0,0,0,0,0,0,0,0,0,0,0,0,0,0,0,0,0,0,0,0,0,0,0,0,0,0,2.0856,2.0857,0,2.0958,2.0959,2.096,2.096,2.0959,2.0957,2.0956,2.1064,2.1068,2.1072,0,0,0,0,0,0,0,0,0,0,0,0,0,2.0664,2.0667,2.0855,2.0857,2.0858,2.0958,2.0959,2.096,2.096,2.0958,2.0957,2.0955,2.1062,2.1067,2.1072,0,0,0,0,0,0,0,0,0,0,0,0,0,2.0755,2.0668,2.0855,2.087,2.0872,2.0957,2.0959,2.0961,2.096,2.0958,2.0956,2.0955,2.1061,2.1067,2.1073,2.1151,0,0,2.1092,2.1094,0,0,0,0,0,0,0,0,2.0749,2.0762,2.0866,2.0869,2.0872,2.0944,2.0931,2.1025,2.0961,2.0927,2.0956,2.0954,2.1026,2.1035,2.1058,2.1156,2.1161,2.1092,2.1096,2.1099,2.11,0,0,0,0,0,0,0,2.0743,2.0757,2.0896,2.0868,2.0871,2.0872,2.0883,2.0949,2.0987,2.093,2.093,2.0942,2.1027,2.1052,2.1061,2.1162,2.1092,2.1098,2.1101,2.1104,2.1332,2.1334,0,0,0,0,0,0,2.0733,2.0752,2.0893,2.0899,2.0804,2.0878,2.089,2.0923,2.0986,2.0993,2.0944,2.0942,2.1043,2.1054,2.1065,2.1162,2.1099,2.1104,2.1108,2.133,2.1333,2.1335,0,0,0,0,0,0,2.0729,2.0746,2.0889,2.0826,2.0844,2.0883,2.092,2.0926,2.0951,2.0996,2.1003,2.0963,2.1042,2.1056,2.113,2.1166,2.1107,2.1113,2.1327,2.1331,2.1334,2.1356,0,0,0,0,0,0,2.0724,2.0744,2.0774,2.0826,2.0847,2.0951,2.0923,2.0929,2.0962,2.096,2.1016,2.1023,2.1041,2.1121,2.1136,2.1173,2.1118,2.1324,2.1329,2.1333,2.1352,2.136,2.1366,0,0,0,0,0,2.0717,2.0776,2.0775,2.0792,2.0884,2.0953,2.0965,2.0984,2.0965,2.0995,2.1024,2.1021,2.1159,2.1128,2.1146,2.1185,2.1322,2.1327,2.1332,2.1349,2.1359,2.1366,0,0,0,0,0,0,2.0727,2.0783,2.0783,2.086,2.0902,2.0953,2.0992,2.0993,2.1041,2.1038,2.106,2.1073,2.1147,2.1173,2.1138,2.1265,2.1238,2.1247,2.1245,2.1254,2.1261,2.1254,2.1123,0,0,0,0,0,2.0738,2.0788,2.0835,2.0899,2.092,2.0952,2.0983,2.0994,2.1038,2.1056,2.109,2.1134,2.1188,2.1222,2.1274,2.1356,2.1369,2.1392,2.1399,2.1405,2.1412,2.146,2.1471,2.1353,2.1353,2.1352,0,0,2.0762,2.0799,2.0829,2.0902,2.0935,2.0988,2.0967,2.1023,2.1063,2.1065,2.1137,2.1164,2.1215,2.1293,2.133,2.1318,2.1448,2.1411,2.1415,2.142,2.1467,2.1478,2.1488,2.1356,2.1356,2.1355,0,0,2.0832,2.0865,2.0922,2.0956,2.1007,2.1029,2.1042,2.1094,2.1112,2.1184,2.1187,2.1235,2.1326,2.1363,2.1393,2.1479,2.148,2.1496,2.1533,2.1579,2.1588,2.1596,2.1629,2.164,2.1503,2.1503,2.1503,0,2.0856,2.0934,2.0952,2.1009,2.1042,2.1045,2.1105,2.1137,2.1203,2.1226,2.1211,2.1326,2.1361,2.1449,2.147,2.1494,2.1512,2.1489,2.1585,2.1594,2.1602,2.1633,2.1645,2.1505,2.1505,2.1504,2.1504,0,2.0961,2.1016,2.1056,2.1119,2.1156,2.1214,2.1242,2.1278,2.1286,2.131,2.1385,2.1426,2.1487,2.1509,2.1517,2.1599,2.159,2.158,2.1554,2.1615,2.1644,2.1656,2.1507,2.1507,2.1506,2.1506,0,0,2.104,2.1113,2.1127,2.1157,2.1214,2.1257,2.1316,2.1375,2.1406,2.1451,2.1502,2.158,2.1571,2.1606,2.1619,2.1659,2.1727,2.1644,2.1646,2.166,2.1822,2.183,2.1844,2.1727,2.1729,2.1731,2.1818,0,2.1117,2.1221,2.124,2.1331,2.1382,2.1387,2.1439,2.148,2.1504,2.1553,2.158,2.1635,2.1618,2.164,2.168,2.171,2.176,2.1704,2.1777,2.1779,2.1765,2.1859,2.1867,2.1947,2.183,2.1832,2.1833,0,2.1221,2.1269,2.1365,2.1417,2.1439,2.1485,2.1541,2.1587,2.1635,2.165,2.1689,2.1698,2.1761,2.1732,2.182,2.1782,2.1813,2.1832,2.1836,2.1844,2.181,2.1871,2.1973,2.1986,2.1851,2.185,2.1849,0,2.1271,2.1359,2.1429,2.1453,2.1515,2.1548,2.1575,2.1621,2.1656,2.1705,2.1729,2.1785,2.1816,2.1861,2.1885,2.1861,2.1973,2.1945,2.1989,2.1988,2.2013,2.2011,2.2123,2.2031,2.203,2.203,2.203,0,2.1356,2.1415,2.1452,2.1495,2.1562,2.1583,2.165,2.1677,2.1718,2.1767,2.1775,2.1821,2.185,2.1902,2.1921,2.1993,2.2007,2.2022,2.2027,2.2022,2.202,2.2043,2.2039,2.2033,2.2033,2.2032,2.2032,0,2.1422,2.1449,2.1526,2.1578,2.1593,2.164,2.1686,2.1728,2.1752,2.1815,2.1831,2.187,2.1931,2.1959,2.2035,2.2048,2.213,2.213,2.2114,2.2116,2.2159,2.2155,2.229,2.231,2.2203,2.2204,2.2205,0,2.1475,2.1521,2.1578,2.1611,2.164,2.1693,2.1729,2.1752,2.1789,2.1848,2.1885,2.1946,2.1996,2.2093,2.2129,2.2188,2.219,2.2234,2.2199,2.2194,2.2193,2.2191,2.2196,2.224,2.2241,2.2242,2.2243,0,2.1566,2.1578,2.1628,2.1684,2.1727,2.1772,2.1816,2.1844,2.1875,2.1916,2.1978,2.2017,2.2095,2.2156,2.2217,2.2247,2.2251,2.2253,2.2267,2.2263,2.2252,2.226,2.2132,2.225,2.2249,2.2249,2.2249,2.2248,2.1629,2.167,2.1718,2.1774,2.181,2.1852,2.1895,2.1925,2.1977,2.2041,2.2052,2.2119,2.2168,2.2251,2.2283,2.2337,2.2327,2.2346,2.2351,2.2356,2.2359,2.2243,2.2348,2.2347,2.2347,2.2347,2.2347,0,2.1722,2.1753,2.1804,2.1867,2.1912,2.191,2.196,2.1999,2.2057,2.2102,2.2151,2.2224,2.2284,2.2324,2.2386,2.2421,2.2425,2.2437,2.2435,2.2442,2.2363,2.2346,2.2433,2.2433,2.2433,2.2433,2.2433,2.2433,2.1776,2.1846,2.1864,2.1953,2.1984,2.2049,2.2078,2.2117,2.2153,2.2234,2.2283,2.2309,2.2353,2.2418,2.2474,2.2485,2.2508,2.252,2.2531,2.2457,2.2448,2.2439,2.2423,2.2525,2.2525,2.2606,2.2606,2.2607]},{"header":{"parameterUnit":"m.s-1","parameterCategory":1,"la1":30.2991,"la2":30.254,"lo1":-89.0895,"lo2":-89.0444,"dy":0.0017,"dx":0.0017,"nx":28,"ny":28,"refTime":"2023-10-20T03:00:00:Z","depth":0,"parameterNumber":3,"parameterNumberName":"V-component_of_WINDS"},"data":[0,0,0,0,0,0,0,0,0,0,0,0,0,0,0,0,0,0,0,0,0,0,0,0,0,0,0,0,0,0,0,0,0,0,0,0,0,0,0,0,0,0,0,0,0,0,0,0,0,0,0,0,0,0,0,0,0,0,2.6349,2.635,0,2.6423,2.6424,2.6425,2.6387,2.6385,2.6383,2.6381,2.6456,2.646,2.6463,0,0,0,0,0,0,0,0,0,0,0,0,0,2.6173,2.6177,2.6349,2.635,2.6351,2.6423,2.6424,2.6425,2.6387,2.6384,2.6382,2.638,2.6455,2.6459,2.6464,0,0,0,0,0,0,0,0,0,0,0,0,0,2.6249,2.6178,2.6348,2.634,2.634,2.6423,2.6424,2.6425,2.6387,2.6384,2.6381,2.6379,2.6453,2.6459,2.6464,2.6559,0,0,2.6482,2.6485,0,0,0,0,0,0,0,0,2.6244,2.6255,2.6341,2.6341,2.6341,2.6393,2.639,2.647,2.6388,2.6369,2.6381,2.6377,2.6437,2.6444,2.6464,2.6563,2.6566,2.6483,2.6486,2.6489,2.649,0,0,0,0,0,0,0,2.6239,2.6252,2.6378,2.6342,2.6342,2.6333,2.634,2.6405,2.6419,2.6371,2.6368,2.6378,2.6437,2.6459,2.6466,2.6567,2.6482,2.6487,2.6491,2.6493,2.6748,2.6751,0,0,0,0,0,0,2.6235,2.6248,2.6376,2.638,2.6285,2.6338,2.6347,2.6379,2.6418,2.6421,2.638,2.6376,2.6451,2.6459,2.6468,2.6583,2.6488,2.6494,2.6497,2.6745,2.6749,2.6752,0,0,0,0,0,0,2.6231,2.6246,2.6373,2.6313,2.6329,2.6344,2.6381,2.6382,2.6404,2.6425,2.6427,2.64,2.6449,2.646,2.6537,2.6585,2.6496,2.6502,2.6741,2.6746,2.6751,2.6813,0,0,0,0,0,0,2.6226,2.6245,2.6281,2.6314,2.6332,2.6441,2.6384,2.6386,2.6414,2.6409,2.6445,2.6448,2.6447,2.6529,2.6543,2.6592,2.6506,2.6737,2.6743,2.6749,2.6807,2.682,2.683,0,0,0,0,0,2.622,2.6295,2.6283,2.6299,2.6378,2.6443,2.6453,2.6452,2.6418,2.6455,2.6469,2.6447,2.6577,2.6537,2.6553,2.6604,2.6734,2.6741,2.6749,2.6802,2.6817,2.683,0,0,0,0,0,0,2.6267,2.63,2.6287,2.6375,2.6407,2.6437,2.6483,2.6468,2.651,2.6503,2.6498,2.6507,2.6587,2.6603,2.6557,2.6698,2.665,2.6661,2.6685,2.67,2.6712,2.6707,2.6511,0,0,0,0,0,2.6288,2.6339,2.6364,2.644,2.6456,2.6467,2.6496,2.6492,2.6524,2.6537,2.6556,2.6589,2.6637,2.6669,2.6715,2.6808,2.6816,2.6851,2.6863,2.6873,2.6883,2.6935,2.6951,2.6777,2.6777,2.6777,0,0,2.6331,2.6355,2.6387,2.645,2.6474,2.6527,2.6479,2.6536,2.6576,2.6546,2.6621,2.6636,2.6671,2.6758,2.6796,2.6773,2.6932,2.6882,2.689,2.6895,2.6944,2.6961,2.6976,2.6782,2.6781,2.678,0,0,2.6437,2.646,2.6527,2.6552,2.659,2.6596,2.6612,2.6645,2.6654,2.6729,2.6708,2.6755,2.6838,2.6865,2.6889,2.7007,2.6989,2.7022,2.7084,2.7135,2.7149,2.7161,2.7205,2.7221,2.7031,2.7032,2.7032,0,2.6486,2.6566,2.6562,2.6623,2.6651,2.6627,2.6695,2.6719,2.677,2.679,2.6763,2.6868,2.689,2.6984,2.7013,2.7032,2.7051,2.7019,2.7147,2.716,2.7171,2.7213,2.7229,2.7036,2.7035,2.7035,2.7034,0,2.6625,2.6681,2.673,2.678,2.6814,2.6878,2.6884,2.6919,2.6912,2.6922,2.6999,2.7024,2.7076,2.7097,2.709,2.719,2.7175,2.7148,2.71,2.7192,2.7231,2.7247,2.7041,2.704,2.7039,2.7038,0,0,2.6764,2.6812,2.683,2.6854,2.6894,2.6937,2.6999,2.705,2.7081,2.7116,2.717,2.7241,2.7217,2.7245,2.7241,2.7286,2.738,2.7253,2.7254,2.7278,2.7493,2.7514,2.7533,2.7367,2.737,2.7372,2.749,0,2.6874,2.6985,2.6984,2.7086,2.7138,2.7116,2.7171,2.7202,2.7213,2.7258,2.727,2.7322,2.7285,2.7302,2.7345,2.7359,2.7423,2.735,2.7418,2.742,2.7411,2.7553,2.7575,2.7685,2.7505,2.7508,2.751,0,2.7018,2.706,2.7168,2.7202,2.7224,2.7273,2.732,2.7364,2.7398,2.7403,2.7435,2.7425,2.7489,2.7438,2.7527,2.7478,2.7505,2.7516,2.7521,2.7528,2.7472,2.7566,2.772,2.7738,2.7534,2.7532,2.753,0,2.7111,2.7193,2.7269,2.729,2.7331,2.7366,2.7385,2.7416,2.7448,2.7489,2.7509,2.7557,2.7583,2.762,2.7623,2.7586,2.7714,2.7663,2.7721,2.7721,2.775,2.7748,2.7913,2.7764,2.7764,2.7764,2.7763,0,2.7235,2.7303,2.7312,2.7359,2.7434,2.7432,2.7506,2.7522,2.755,2.76,2.7583,2.763,2.763,2.7678,2.768,2.7755,2.7766,2.7772,2.7773,2.7775,2.7775,2.7794,2.7788,2.7768,2.7767,2.7766,2.7766,0,2.7352,2.736,2.7442,2.7475,2.7484,2.7539,2.7566,2.7611,2.762,2.7684,2.7698,2.7713,2.7769,2.7775,2.7839,2.7841,2.7932,2.7923,2.7921,2.792,2.7978,2.7973,2.8162,2.8188,2.8021,2.8023,2.8024,0,2.7431,2.7483,2.7522,2.7554,2.7575,2.7627,2.766,2.766,2.7694,2.7738,2.7778,2.7832,2.7876,2.7966,2.7982,2.8032,2.8025,2.8088,2.8032,2.8034,2.8029,2.8026,2.8032,2.8099,2.8101,2.8102,2.8104,0,2.7573,2.7575,2.7622,2.7672,2.7711,2.775,2.7786,2.7813,2.7818,2.7857,2.7915,2.7949,2.8015,2.807,2.8119,2.8138,2.8123,2.8121,2.8137,2.8141,2.8139,2.8143,2.7952,2.8117,2.8115,2.8114,2.8114,2.8113,2.7675,2.772,2.7755,2.7809,2.7837,2.7871,2.7916,2.7931,2.7979,2.8034,2.8031,2.8095,2.8129,2.8194,2.8216,2.8266,2.8246,2.8269,2.8275,2.8281,2.8288,2.8129,2.8275,2.8274,2.8274,2.8274,2.8274,0,2.7817,2.7839,2.7888,2.794,2.7983,2.7964,2.8004,2.8041,2.8098,2.8131,2.8175,2.8241,2.8294,2.8315,2.8367,2.8404,2.8398,2.8417,2.8416,2.8421,2.8303,2.8284,2.8421,2.8421,2.8421,2.8421,2.8421,2.8421,2.7896,2.7973,2.798,2.8071,2.8091,2.8155,2.8179,2.8211,2.8238,2.8314,2.8358,2.8372,2.8401,2.8455,2.8503,2.8508,2.8529,2.8552,2.8554,2.8444,2.8429,2.8415,2.8398,2.8556,2.8556,2.8668,2.8669,2.867]}]]